カタログに戻る

METEOR 2-8 DEB

運用中PO
NORAD 36863·DEBRIS·🇷🇺 Russia

打ち上げ Mar 25, 1982 から Plesetsk Cosmodrome

Loading…

次のパス (今後24時間)

TLE

最新Source: Space-Track

元期: Sep 13, 2026, 10:56 UTC

1 36863U 82025BA  26256.45613440  .00001474  00000-0  62808-3 0  9994
2 36863  82.5287 153.3911 0006056 209.8085 150.2754 14.24592366133881

AllMySatでMETEOR 2-8 DEBをリアルタイム追跡

Download on the App Store